Torna al catalogo

COSMOS 2416

AttivoNavigazionePO
NORAD 28908·PAYLOAD·🇷🇺 Russia

Lanciato Dec 21, 2005 da Plesetsk Cosmodrome

Loading…

Prossimi Passaggi (prossime 24 ore)

TLE

AggiornatoSource: Space-Track

Epoca: Sep 14, 2026, 11:08 UTC

1 28908U 05048A   26257.46402036 -.00000003  00000-0 -80830-4 0  9999
2 28908  82.4633 250.5560 0007431 340.0817 186.8164 12.55603222950103

Traccia COSMOS 2416 in tempo reale con AllMySat

Download on the App Store